This demonstration page uses our WeatherBlox Daily Observations layout. Learn more.

Left ArrowRight Arrow

Hourly Observations for June 15, 2017

Temp ( °F °C ) Dew Point ( °F °C ) Humidity (%) Winds ( mph kmh ) Pressure ( in mb ) Visibility ( mi km ) Precip ( " mm )
12:15 am 00:15 Clear 70 21.3 47 8.3 43 43 SSW 8 13 29.8 1009 10 16.0934 0 0
12:35 am 00:35 Clear 70 21 47 8.5 45 45 SSW 7 11 29.8 1009 10 16.0934 0 0
12:55 am 00:55 Clear 71 21.8 46 7.7 40 40 SW 8 13 29.8 1009 10 16.0934 0 0
1:15 am 01:15 Clear 71 21.5 47 8.1 42 42 WSW 6 9 29.83 1010 10 16.0934 0 0
1:35 am 01:35 Clear 69 20.8 47 8.1 44 44 WSW 5 7 29.8 1009 10 16.0934 0 0
1:55 am 01:55 Clear 68 20.2 46 7.9 45 45 WSW 5 7 29.8 1009 10 16.0934 0 0
2:15 am 02:15 Clear 69 20.3 46 7.6 44 44 WSW 3 6 29.8 1009 10 16.0934 0 0
2:35 am 02:35 Clear 68 20.2 46 7.5 44 44 SW 5 7 29.8 1009 10 16.0934 0 0
2:55 am 02:55 Clear 67 19.5 46 7.5 46 46 SW 5 7 29.8 1009 10 16.0934 0 0
3:15 am 03:15 Clear 65 18.6 46 7.5 49 49 Calm 29.8 1009 10 16.0934 0 0
3:35 am 03:35 Clear 63 17.4 47 8.6 56 56 Calm 29.83 1010 10 16.0934 0 0
3:55 am 03:55 Clear 64 18 47 8.1 53 53 Calm 29.83 1010 10 16.0934 0 0
4:15 am 04:15 Clear 67 19.3 45 7.3 46 46 SW 3 6 29.8 1009 10 16.0934 0 0
4:35 am 04:35 Clear 59 14.8 47 8.2 65 65 NNW 3 6 29.83 1010 10 16.0934 0 0
4:55 am 04:55 Clear 60 15.6 48 8.7 64 64 WNW 3 6 29.85 1011 10 16.0934 0 0
5:15 am 05:15 Clear 60 15.4 48 8.9 65 65 Calm 29.85 1011 10 16.0934 0 0
5:35 am 05:35 Clear 61 16.2 47 8.6 61 61 WSW 3 6 29.85 1011 10 16.0934 0 0
5:55 am 05:55 Clear 64 17.8 46 7.8 52 52 WSW 3 6 29.85 1011 10 16.0934 0 0
6:15 am 06:15 Sunny 63 17.1 46 7.5 53 53 N 8 13 29.85 1011 10 16.0934 0 0
6:35 am 06:35 Sunny 62 16.5 47 8.5 59 59 WNW 3 6 29.85 1011 10 16.0934 0 0
6:55 am 06:55 Sunny 62 16.9 48 8.8 59 59 Calm 29.85 1011 10 16.0934 0 0
7:15 am 07:15 Sunny 64 17.6 49 9.5 59 59 Calm 29.88 1012 10 16.0934 0 0
7:35 am 07:35 Sunny 66 19.1 50 10.1 56 56 Calm 29.85 1011 10 16.0934 0 0
7:55 am 07:55 Sunny 69 20.4 50 10 51 51 Calm 29.85 1011 10 16.0934 0 0
8:15 am 08:15 Sunny 71 21.6 49 9.3 46 46 Calm 29.85 1011 10 16.0934 0 0
8:35 am 08:35 Sunny 73 22.5 50 9.9 45 45 Calm 29.83 1010 10 16.0934 0 0
8:55 am 08:55 Sunny 74 23.6 50 9.8 42 42 S 3 6 29.83 1010 10 16.0934 0 0
9:15 am 09:15 Sunny 77 25.2 49 9.6 37 37 SSW 3 6 29.83 1010 10 16.0934 0 0
9:35 am 09:35 Sunny 80 26.4 49 9.6 35 35 S 6 9 29.8 1009 10 16.0934 0 0
9:55 am 09:55 Sunny 82 27.7 49 9.4 32 32 WSW 7 11 29.8 1009 10 16.0934 0 0
10:15 am 10:15 Sunny 84 28.8 50 10.2 31 31 SW 8 13 29.77 1008 10 16.0934 0 0
10:35 am 10:35 Sunny 85 29.2 51 10.5 31 31 SW 6 9 29.77 1008 10 16.0934 0 0
10:55 am 10:55 Sunny 86 30 52 10.9 31 31 WSW 5 7 29.74 1007 10 16.0934 0 0
11:15 am 11:15 Sunny 87 30.4 51 10.7 30 30 SW 8 13 29.74 1007 10 16.0934 0 0
11:35 am 11:35 Sunny 87 30.6 51 10.3 28 28 W 9 15 29.74 1007 10 16.0934 0 0
11:55 am 11:55 Sunny 88 30.9 51 10.3 28 28 SW 6 9 29.74 1007 10 16.0934 0 0
12:15 pm 12:15 Sunny 88 31 52 11 29 29 SW 7 11 29.74 1007 10 16.0934 0 0
12:35 pm 12:35 Sunny 88 31.2 51 10.3 27 27 W 8 13 29.74 1007 10 16.0934 0 0
12:55 pm 12:55 Sunny 89 31.6 50 10.1 26 26 SSW 6 9 29.74 1007 10 16.0934 0 0
1:15 pm 13:15 Sunny 90 32 50 10.2 26 26 W 8 13 29.74 1007 10 16.0934 0 0
1:35 pm 13:35 Sunny 90 32.2 49 9.5 25 25 WSW 6 9 29.71 1006 10 16.0934 0 0
1:55 pm 13:55 Sunny 91 32.8 49 9.5 24 24 W 6 9 29.71 1006 10 16.0934 0 0
2:15 pm 14:15 Sunny 91 33 49 9.5 23 23 SW 6 9 29.71 1006 10 16.0934 0 0
2:35 pm 14:35 Sunny 91 33 47 8.4 22 22 WNW 5 7 29.71 1006 10 16.0934 0 0
2:55 pm 14:55 Sunny 92 33.4 49 9.4 23 23 WSW 3 6 29.65 1004 10 16.0934 0 0
3:15 pm 15:15 Sunny 92 33.1 47 8.2 21 21 W 7 11 29.65 1004 10 16.0934 0 0
3:35 pm 15:35 Sunny 92 33.1 46 8 21 21 W 5 7 29.65 1004 10 16.0934 0 0
3:55 pm 15:55 Sunny 93 33.7 48 8.7 21 21 N 5 7 29.62 1003 10 16.0934 0 0
4:15 pm 16:15 Sunny 91 32.8 47 8.3 22 22 NW 5 7 29.62 1003 10 16.0934 0 0
4:35 pm 16:35 Sunny 92 33.1 48 8.7 22 22 NNW 7 11 29.62 1003 10 16.0934 0 0
4:55 pm 16:55 Sunny 91 32.9 48 8.9 23 23 N 7 11 29.62 1003 10 16.0934 0 0
5:15 pm 17:15 Sunny 92 33.1 47 8.3 21 21 NNW 8 13 29.62 1003 10 16.0934 0 0
5:35 pm 17:35 Sunny 91 32.6 48 8.9 23 23 N 6 9 29.62 1003 10 16.0934 0 0
5:55 pm 17:55 Sunny 91 33 45 7.4 20 20 NNW 5 7 29.62 1003 7 11.26538 0 0
6:15 pm 18:15 Sunny 89 31.9 51 10.6 27 27 NNE 12 19 29.65 1004 10 16.0934 0 0
6:35 pm 18:35 Sunny 89 31.9 51 10.4 27 27 NNE 12 19 29.62 1003 10 16.0934 0 0
6:55 pm 18:55 Sunny 88 31.2 52 11.3 29 29 NNE 13 20 29.62 1003 10 16.0934 0 0
7:15 pm 19:15 Sunny 87 30.8 52 11.1 30 30 NNE 15 24 29.62 1003 10 16.0934 0 0
7:35 pm 19:35 Sunny 87 30.6 50 10.1 28 28 NE 13 20 29.62 1003 10 16.0934 0 0
7:55 pm 19:55 Sunny 86 30 51 10.3 29 29 NE 10 17 29.62 1003 10 16.0934 0 0
8:15 pm 20:15 Sunny 84 29.1 50 10 30 30 NE 12 19 29.62 1003 10 16.0934 0 0
8:35 pm 20:35 Sunny 82 28 50 9.9 32 32 NE 9 15 29.65 1004 10 16.0934 0 0
8:55 pm 20:55 Sunny 78 25.7 51 10.6 39 39 NE 9 15 29.65 1004 10 16.0934 0 0
9:15 pm 21:15 Clear 75 23.9 52 11.3 45 45 NNE 8 13 29.68 1005 10 16.0934 0 0
9:35 pm 21:35 Clear 74 23.2 52 11 46 46 NE 8 13 29.71 1006 10 16.0934 0 0
9:55 pm 21:55 Clear 74 23.4 50 9.8 42 42 ENE 7 11 29.71 1006 10 16.0934 0 0
10:15 pm 22:15 Clear 74 23.4 50 10.1 43 43 E 5 7 29.74 1007 10 16.0934 0 0
10:35 pm 22:35 Clear 73 22.7 51 10.6 46 46 Calm 29.74 1007 10 16.0934 0 0
10:55 pm 22:55 Clear 73 22.7 51 10.4 46 46 Calm 29.77 1008 10 16.0934 0 0
11:15 pm 23:15 Clear 73 22.9 51 10.5 46 46 SE 3 6 29.77 1008 10 16.0934 0 0
11:35 pm 23:35 Clear 71 21.7 51 10.8 50 50 SE 3 6 29.74 1007 10 16.0934 0 0
11:55 pm 23:55 Clear 71 21.7 51 10.6 49 49 Calm 29.74 1007 10 16.0934 0 0

Powered by AerisWeather